| time (UTC) | temp F | wind direction | speed MPH | gust MPH | rain 1hr in | rain 24hr in | rain mn in | humidity % | barometer mb |
| 20260509155819 | 55 | 88 | 0.0 | 0.0 | 0.00 | 0.06 | 0.04 | 88 | 1012.5 |
| 20260509154811 | 55 | 135 | 0.0 | 0.0 | 0.00 | 0.06 | 0.04 | 89 | 1012.7 |
| 20260509153750 | 55 | 141 | 0.0 | 0.0 | 0.00 | 0.06 | 0.04 | 89 | 1012.8 |
| 20260509152805 | 55 | 127 | 0.0 | 0.0 | 0.00 | 0.06 | 0.04 | 89 | 1012.8 |
| 20260509151805 | 55 | 144 | 0.0 | 0.0 | 0.00 | 0.06 | 0.04 | 89 | 1012.9 |
| 20260509150733 | 55 | 130 | 0.0 | 0.0 | 0.00 | 0.06 | 0.04 | 89 | 1012.8 |
| 20260509145712 | 54 | 127 | 0.0 | 0.0 | 0.00 | 0.06 | 0.04 | 89 | 1012.9 |
| 20260509144702 | 54 | 132 | 0.0 | 0.0 | 0.00 | 0.06 | 0.04 | 91 | 1012.9 |
| 20260509142538 | 52 | 76 | 0.0 | 0.0 | 0.00 | 0.06 | 0.04 | 93 | 1012.5 |
| 20260509141532 | 52 | 74 | 0.0 | 0.0 | 0.00 | 0.06 | 0.04 | 93 | 1012.5 |
| 20260509140551 | 52 | 347 | 0.0 | 0.0 | 0.00 | 0.06 | 0.04 | 94 | 1012.6 |
| 20260509135544 | 51 | 78 | 0.0 | 0.0 | 0.00 | 0.06 | 0.04 | 94 | 1012.9 |
| 20260509134545 | 50 | 68 | 0.0 | 1.0 | 0.00 | 0.06 | 0.04 | 94 | 1012.9 |
| 20260509133604 | 50 | 98 | 0.0 | 0.0 | 0.00 | 0.06 | 0.04 | 94 | 1013.0 |
| 20260509132558 | 49 | 348 | 0.0 | 3.0 | 0.00 | 0.05 | 0.03 | 94 | 1013.1 |
| 20260509131614 | 49 | 90 | 0.0 | 3.0 | 0.00 | 0.05 | 0.03 | 93 | 1013.0 |
| 20260509130602 | 49 | 349 | 0.0 | 0.0 | 0.00 | 0.05 | 0.03 | 93 | 1013.2 |
| 20260509125534 | 48 | 57 | 0.0 | 1.0 | 0.00 | 0.05 | 0.03 | 93 | 1013.1 |
| 20260509124516 | 48 | 68 | 0.0 | 0.0 | 0.00 | 0.05 | 0.03 | 93 | 1013.1 |
| 20260509122348 | 48 | 245 | 0.0 | 0.0 | 0.00 | 0.05 | 0.03 | 93 | 1013.7 |
| 20260509121332 | 47 | 65 | 0.0 | 1.0 | 0.00 | 0.05 | 0.03 | 93 | 1013.7 |
| 20260509120320 | 47 | 332 | 0.0 | 1.0 | 0.00 | 0.05 | 0.03 | 93 | 1013.7 |
| 20260509115328 | 47 | 60 | 0.0 | 0.0 | 0.00 | 0.05 | 0.03 | 93 | 1013.6 |
| 20260509113136 | 47 | 86 | 0.0 | 0.0 | 0.00 | 0.04 | 0.03 | 94 | 1013.6 |
| 20260509112131 | 47 | 86 | 0.0 | 0.0 | 0.00 | 0.04 | 0.02 | 94 | 1013.6 |
| 20260509111145 | 47 | 94 | 0.0 | 0.0 | 0.00 | 0.04 | 0.02 | 94 | 1013.7 |
| 20260509110111 | 47 | 94 | 0.0 | 0.0 | 0.00 | 0.04 | 0.02 | 94 | 1013.6 |
| 20260509105041 | 46 | 348 | 0.0 | 0.0 | 0.00 | 0.04 | 0.02 | 94 | 1013.5 |
| 20260509102907 | 46 | 349 | 0.0 | 0.0 | 0.00 | 0.04 | 0.02 | 95 | 1013.3 |
| 20260509101914 | 46 | 342 | 0.0 | 0.0 | 0.00 | 0.04 | 0.02 | 95 | 1013.4 |
| 20260509094715 | 46 | 32 | 0.0 | 0.0 | 0.00 | 0.04 | 0.02 | 94 | 1013.4 |
| 20260509093656 | 46 | 32 | 0.0 | 0.0 | 0.00 | 0.04 | 0.02 | 94 | 1013.4 |
| 20260509092707 | 46 | 32 | 0.0 | 0.0 | 0.00 | 0.04 | 0.02 | 94 | 1013.2 |
| 20260509091640 | 46 | 32 | 0.0 | 0.0 | 0.00 | 0.04 | 0.02 | 94 | 1013.3 |
| 20260509090642 | 46 | 32 | 0.0 | 0.0 | 0.00 | 0.04 | 0.02 | 93 | 1013.4 |
| 20260509084506 | 47 | 33 | 0.0 | 0.0 | 0.00 | 0.04 | 0.02 | 93 | 1013.3 |
| 20260509083446 | 47 | 32 | 0.0 | 0.0 | 0.00 | 0.04 | 0.02 | 93 | 1013.2 |
| 20260509082421 | 47 | 32 | 0.0 | 0.0 | 0.00 | 0.04 | 0.02 | 93 | 1013.2 |
| 20260509081430 | 47 | 32 | 0.0 | 0.0 | 0.00 | 0.04 | 0.02 | 92 | 1013.2 |
| 20260509080446 | 47 | 32 | 0.0 | 0.0 | 0.04 | 0.04 | 0.02 | 92 | 1013.4 |
| 20260509075507 | 47 | 302 | 0.0 | 0.0 | 0.05 | 0.04 | 0.02 | 91 | 1013.4 |
| 20260509074514 | 47 | 297 | 0.0 | 0.0 | 0.00 | 0.02 | 0.01 | 90 | 1013.2 |
| 20260509073510 | 47 | 297 | 0.0 | 0.0 | 0.00 | 0.02 | 0.00 | 89 | 1013.3 |
| 20260509072507 | 48 | 297 | 0.0 | 0.0 | 0.00 | 0.02 | 0.00 | 88 | 1013.1 |
| 20260509071515 | 48 | 297 | 0.0 | 0.0 | 0.00 | 0.02 | 0.00 | 87 | 1013.1 |
| 20260509070530 | 48 | 297 | 0.0 | 0.0 | 0.00 | 0.02 | 0.00 | 87 | 1013.2 |
| 20260509065529 | 48 | 297 | 0.0 | 0.0 | 0.00 | 0.02 | 0.00 | 86 | 1013.2 |
| 20260509063359 | 48 | 297 | 0.0 | 0.0 | 0.00 | 0.02 | 0.00 | 86 | 1013.2 |
| 20260509062341 | 48 | 297 | 0.0 | 0.0 | 0.00 | 0.02 | 0.00 | 87 | 1013.4 |
| 20260509061406 | 48 | 297 | 0.0 | 0.0 | 0.00 | 0.02 | 0.00 | 87 | 1013.6 |
| 20260509055229 | 48 | 297 | 0.0 | 0.0 | 0.00 | 0.02 | 0.00 | 87 | 1013.7 |
| 20260509054159 | 48 | 297 | 0.0 | 0.0 | 0.00 | 0.02 | 0.00 | 86 | 1013.9 |
| 20260509052101 | 49 | 297 | 0.0 | 0.0 | 0.00 | 0.02 | 0.00 | 87 | 1013.7 |
| 20260509051045 | 49 | 297 | 0.0 | 0.0 | 0.00 | 0.02 | 0.00 | 88 | 1013.6 |
| 20260509050109 | 49 | 297 | 0.0 | 0.0 | 0.00 | 0.02 | 0.00 | 87 | 1013.8 |
| 20260509045100 | 48 | 297 | 0.0 | 0.0 | 0.00 | 0.02 | 0.00 | 87 | 1013.8 |
| 20260509044040 | 48 | 297 | 0.0 | 0.0 | 0.00 | 0.02 | 0.00 | 87 | 1013.9 |
| 20260509043044 | 48 | 297 | 0.0 | 0.0 | 0.00 | 0.02 | 0.00 | 86 | 1013.9 |
| 20260509042012 | 48 | 297 | 0.0 | 0.0 | 0.00 | 0.02 | 0.00 | 86 | 1013.8 |
| 20260509040954 | 48 | 297 | 0.0 | 0.0 | 0.00 | 0.02 | 0.00 | 87 | 1013.9 |
| 20260509040014 | 48 | 297 | 0.0 | 0.0 | 0.00 | 0.02 | 0.00 | 86 | 1013.9 |
| 20260509035009 | 48 | 297 | 0.0 | 0.0 | 0.00 | 0.02 | 0.02 | 86 | 1014.0 |
| 20260509033946 | 48 | 297 | 0.0 | 0.0 | 0.00 | 0.02 | 0.02 | 86 | 1014.0 |
| 20260509031825 | 48 | 298 | 0.0 | 0.0 | 0.00 | 0.02 | 0.02 | 85 | 1013.8 |
| 20260509025616 | 48 | 299 | 0.0 | 0.0 | 0.00 | 0.02 | 0.02 | 85 | 1013.4 |
| 20260509023418 | 48 | 299 | 0.0 | 0.0 | 0.00 | 0.02 | 0.02 | 85 | 1013.3 |
| 20260509022354 | 48 | 300 | 0.0 | 0.0 | 0.00 | 0.02 | 0.02 | 85 | 1013.3 |
| 20260509021401 | 47 | 300 | 0.0 | 0.0 | 0.00 | 0.02 | 0.02 | 85 | 1013.3 |
| 20260509020355 | 47 | 300 | 0.0 | 0.0 | 0.00 | 0.02 | 0.02 | 84 | 1013.3 |
| 20260509015408 | 47 | 299 | 0.0 | 0.0 | 0.00 | 0.02 | 0.02 | 83 | 1013.3 |
| 20260509014404 | 47 | 299 | 0.0 | 0.0 | 0.00 | 0.02 | 0.02 | 82 | 1013.2 |
| 20260509012306 | 48 | 296 | 0.0 | 0.0 | 0.00 | 0.02 | 0.02 | 80 | 1013.1 |
| 20260509010141 | 49 | 296 | 0.0 | 0.0 | 0.00 | 0.02 | 0.02 | 75 | 1012.8 |
| 20260509004042 | 50 | 296 | 0.0 | 0.0 | 0.00 | 0.02 | 0.02 | 71 | 1012.4 |
| 20260509003029 | 51 | 296 | 0.0 | 0.0 | 0.00 | 0.02 | 0.02 | 69 | 1012.1 |
| 20260509002048 | 51 | 296 | 0.0 | 0.0 | 0.00 | 0.02 | 0.02 | 68 | 1012.0 |
| 20260509001017 | 52 | 296 | 0.0 | 0.0 | 0.00 | 0.02 | 0.02 | 65 | 1012.0 |
| 20260508234817 | 54 | 296 | 0.0 | 0.0 | 0.00 | 0.02 | 0.02 | 60 | 1011.8 |
| 20260508233806 | 55 | 296 | 0.0 | 0.0 | 0.00 | 0.02 | 0.02 | 60 | 1011.8 |
| 20260508232743 | 55 | 271 | 0.0 | 0.0 | 0.00 | 0.02 | 0.02 | 59 | 1011.6 |
| 20260508231714 | 55 | 89 | 0.0 | 0.0 | 0.00 | 0.02 | 0.02 | 60 | 1011.5 |
| 20260508230647 | 55 | 78 | 0.0 | 0.0 | 0.00 | 0.02 | 0.02 | 61 | 1011.4 |
| 20260508225633 | 56 | 49 | 0.0 | 0.0 | 0.00 | 0.02 | 0.02 | 63 | 1011.3 |
| 20260508203911 | 54 | 128 | 0.0 | 7.0 | 0.00 | 0.02 | 0.02 | 79 | 1010.7 |
| 20260508202846 | 54 | 51 | 1.0 | 7.0 | 0.00 | 0.02 | 0.02 | 84 | 1011.0 |
| 20260508200800 | 52 | 66 | 0.0 | 2.0 | 0.00 | 0.02 | 0.02 | 89 | 1011.1 |
| 20260508195752 | 50 | 115 | 0.0 | 0.0 | 0.00 | 0.02 | 0.02 | 90 | 1011.2 |
| 20260508194811 | 49 | 43 | 0.0 | 0.0 | 0.00 | 0.02 | 0.02 | 90 | 1011.4 |
| 20260508193824 | 49 | 110 | 0.0 | 0.0 | 0.00 | 0.02 | 0.02 | 90 | 1011.7 |
| 20260508192803 | 49 | 69 | 0.0 | 0.0 | 0.00 | 0.02 | 0.02 | 90 | 1011.9 |
| 20260508191752 | 48 | 79 | 0.0 | 1.0 | 0.06 | 0.02 | 0.02 | 88 | 1012.0 |
| 20260508190724 | 49 | 359 | 0.0 | 2.0 | 0.06 | 0.01 | 0.01 | 80 | 1012.3 |
| 20260508183450 | 56 | 328 | 0.0 | 6.0 | 0.00 | 0.00 | 0.00 | 53 | 1011.3 |
| 20260508182423 | 57 | 56 | 1.0 | 9.0 | 0.00 | 0.00 | 0.00 | 53 | 1011.2 |
| 20260508181355 | 58 | 153 | 1.0 | 9.0 | 0.00 | 0.00 | 0.00 | 52 | 1010.8 |
| 20260508180327 | 58 | 184 | 0.0 | 3.0 | 0.00 | 0.00 | 0.00 | 54 | 1010.8 |
| 20260508175325 | 56 | 101 | 0.0 | 4.0 | 0.00 | 0.00 | 0.00 | 55 | 1010.9 |
| 20260508173123 | 55 | 34 | 0.0 | 2.0 | 0.00 | 0.00 | 0.00 | 54 | 1011.5 |
| 20260508172122 | 55 | 74 | 1.0 | 5.0 | 0.00 | 0.00 | 0.00 | 54 | 1011.5 |
| 20260508171124 | 56 | 127 | 1.0 | 8.0 | 0.00 | 0.00 | 0.00 | 54 | 1011.5 |
| 20260508170106 | 55 | 333 | 0.0 | 8.0 | 0.00 | 0.00 | 0.00 | 52 | 1011.3 |
| 20260508165031 | 55 | 89 | 2.0 | 8.0 | 0.00 | 0.00 | 0.00 | 52 | 1011.3 |
| 20260508164000 | 56 | 119 | 1.0 | 6.0 | 0.00 | 0.00 | 0.00 | 53 | 1011.4 |
| 20260508161847 | 56 | 131 | 0.0 | 5.0 | 0.00 | 0.00 | 0.00 | 50 | 1011.6 |
| 20260508160855 | 56 | 105 | 0.0 | 5.0 | 0.00 | 0.00 | 0.00 | 50 | 1011.5 |